This demonstration page uses our WeatherBlox Daily Observations layout. Learn more.

39.08367, -84.50855

Hourly Observations for June 24, 2019

Temp ( °F °C ) Dew Point ( °F °C ) Humidity (%) Winds ( mph kmh ) Pressure ( in mb ) Visibility ( mi km ) Precip ( " mm )
12:53 am 00:53 Mostly Cloudy with Light Rain 69 20.6 67 19.4 93 93 SSW 5 7 29.83 1010 10 16.09344 0.04 1.016
1:53 am 01:53 Clear 67 19.4 66 18.9 97 97 VRB 5 7 29.8 1009 10 16.09344 0.001 0.001
2:53 am 02:53 Clear 68 20 66 18.9 93 93 SSW 6 9 29.8 1009 10 16.09344 0.001 0.001
3:53 am 03:53 Clear 68 20 66 18.9 93 93 SSW 6 9 29.77 1008 10 16.09344 0 0
4:53 am 04:53 Clear 66 18.9 65 18.3 96 96 Calm 29.77 1008 10 16.09344 0 0
5:34 am 05:34 Clear with Mist and Fog 65 18.3 65 18.3 100 100 Calm 29.8 1009 1.5 2.414016 0 0
5:42 am 05:42 Mostly Cloudy with Fog 64 17.8 64 17.8 100 100 Calm 29.8 1009 0.5 0.804672 0 0
5:53 am 05:53 Clear with Mist and Fog 65 18.3 65 18.3 100 100 Calm 29.77 1008 1 1.609344 0 0
5:58 am 05:58 Clear with Mist and Fog 65 18.3 64 17.8 97 97 Calm 29.8 1009 3 4.828032 0 0
6:16 am 06:16 Sunny with Mist and Fog 64 17.8 64 17.8 100 100 Calm 29.8 1009 1.5 2.414016 0 0
6:41 am 06:41 Sunny with Mist and Fog 66 18.9 65 18.3 96 96 Calm 29.8 1009 3 4.828032 0 0
6:53 am 06:53 Sunny 66 18.9 65 18.3 96 96 SSW 5 7 29.8 1009 10 16.09344 0 0
7:53 am 07:53 Sunny 71 21.7 68 20 90 90 S 8 13 29.8 1009 10 16.09344 0 0
8:53 am 08:53 Sunny 74 23.3 69 20.6 85 85 S 10 17 29.8 1009 10 16.09344 0 0
9:53 am 09:53 Mostly Cloudy 74 23.3 68 20 82 82 S 8 13 29.8 1009 10 16.09344 0 0
10:53 am 10:53 Mostly Cloudy 78 25.6 69 20.6 74 74 SSW 8 13 29.8 1009 10 16.09344 0 0
11:53 am 11:53 Mostly Cloudy 78 25.6 69 20.6 74 74 SW 7 11 29.77 1008 10 16.09344 0 0
12:53 pm 12:53 Mostly Cloudy 78 25.6 68 20 71 71 SW 12 19 29.77 1008 10 16.09344 0 0
1:38 pm 13:38 Cloudy with Light Rain 76 24.4 68 20 77 77 SSW 12 19 29.8 1009 4 6.437376 0.001 0.001
1:53 pm 13:53 Cloudy with Light Rain 76 24.4 69 20.6 79 79 SW 12 19 29.77 1008 4 6.437376 0.001 0.001
2:53 pm 14:53 Mostly Cloudy 78 25.6 69 20.6 74 74 VRB 3 6 29.71 1006 10 16.09344 0.001 0.001
3:53 pm 15:53 Cloudy with Light Rain 75 23.9 71 21.7 88 88 VRB 5 7 29.68 1005 4 6.437376 0.02 0.508
4:00 pm 16:00 Cloudy with Light Rain 75 23.9 71 21.7 88 88 Calm 29.71 1006 2.5 4.02336 0.01 0.254
4:10 pm 16:10 Cloudy with Mist and Fog 74 23.3 71 21.7 91 91 W 15 24 29.74 1007 2.5 4.02336 0.03 0.762
4:18 pm 16:18 Cloudy with Mist and Fog 72 22.2 71 21.7 97 97 W 10 17 29.74 1007 1 1.609344 0.39 9.906
4:30 pm 16:30 Cloudy with Heavy Rain 71 21.7 69 20.6 94 94 WSW 16 26 29.74 1007 1 1.609344 0.56 14.224
4:36 pm 16:36 Cloudy with Heavy Rain 70 21.1 68 20 93 93 W 13 20 29.74 1007 1 1.609344 0.62 15.748
4:46 pm 16:46 Cloudy with Heavy Rain 70 21.1 68 20 93 93 WSW 5 7 29.71 1006 2 3.218688 0.73 18.542
4:53 pm 16:53 Cloudy with Heavy Rain 70 21.1 68 20 93 93 SW 5 7 29.71 1006 3 4.828032 0.77 19.558
5:35 pm 17:35 Mostly Cloudy 73 22.8 70 21.1 90 90 SW 7 11 29.71 1006 10 16.09344 0.02 0.508
5:53 pm 17:53 Mostly Cloudy 73 22.8 70 21.1 90 90 WSW 7 11 29.71 1006 10 16.09344 0.02 0.508
6:53 pm 18:53 Cloudy 74 23.3 68 20 82 82 W 13 20 29.74 1007 10 16.09344 0 0
7:53 pm 19:53 Mostly Cloudy 74 23.3 67 19.4 79 79 WSW 7 11 29.77 1008 10 16.09344 0 0
8:53 pm 20:53 Sunny 72 22.2 67 19.4 84 84 S 7 11 29.77 1008 10 16.09344 0 0
9:53 pm 21:53 Clear 68 20 66 18.9 93 93 SSW 5 7 29.8 1009 10 16.09344 0 0
10:53 pm 22:53 Clear 68 20 66 18.9 93 93 SW 5 7 29.8 1009 10 16.09344 0 0
11:53 pm 23:53 Mostly Clear 68 20 66 18.9 93 93 Calm 29.83 1010 10 16.09344 0 0

Powered by AerisWeather